Find Local Weather

World > North America > United States > Wisconsin

Sheboygan, Wisconsin Regional Weather

Lat: 43.75N, Lon: 87.72W
Wx Zone: WIZ052
Feedback

Sheboygan, WI Regional Weather

Expires:201903220800;;735240
ASUS43 KMKX 220721
RWRWI 

WISCONSIN REGIONAL WEATHER ROUNDUP
NATIONAL WEATHER SERVICE MILWAUKEE/SULLIVAN WI
200 AM CDT FRI MAR 22 2019

NOTE: "FAIR" INDICATES FEW OR NO CLOUDS BELOW 12,000 FEET WITH NO
SIGNIFICANT WEATHER AND/OR OBSTRUCTIONS TO VISIBILITY.


WIZ051-052-058>065-066-070>072-220800-
SOUTHEAST WISCONSIN
  
CITY           SKY/WX    TMP DP  RH WIND       PRES   REMARKS
MILWAUKEE      FAIR      41  30  65 NW13      29.90S                  
WAUKESHA       FAIR      34  30  86 W10       29.92S WCI  26          
MILWAUKEE/TIMM FAIR      36  28  75 NW9       29.93R WCI  29          
RACINE         FAIR      40  30  67 W12       29.91S WCI  33          
KENOSHA        FAIR      38  32  79 W10       29.91S WCI  31          
FOND DU LAC    FAIR      35  30  82 NW12      29.94R WCI  27          
SHEBOYGAN      FAIR      35  29  78 N7        29.92R WCI  29          
WEST BEND      FAIR      36  32  87 N7        29.93R WCI  30          
JUNEAU         FAIR      37  32  81 NW9       29.93R WCI  30          
$$


SKY/WX - Weather  TMP - Temperature  DP - Dew Point  RH - Relative Humidity
WIND - Wind Direction/Speed PRES - Barometric Pressure VSB - Visibility
WCI - Wind Chill Index E13G22 Wind - East Wind 13 mph/Gusts of 22 mph